Wetbulb
58.95 57.65 57.11 56.74 56.69 56.40 55.25 54.36 54.40 53.45 49.51 47.80 48.50 49.10 49.44 48.76 47.58 46.86 46.24 44.66 42.42 39.71
49.76 51.07 49.39 45.50 45.08 44.68 44.70 44.34 43.13 42.92 42.07 42.20 42.53 42.04 41.15 39.96 38.70 38.32 37.92 36.85 36.58 35.82
41.45 41.34 41.01 40.73 39.79 39.63 39.63 39.67 39.18 38.90 38.84 38.86 39.05 39.12 38.78 37.97 37.90 37.00 36.74 36.14 35.32 34.89
39.40 39.15 38.83 38.19 37.97 37.73 37.82 37.84 37.43 37.59 37.47 37.50 37.58 38.04 37.56 36.92 36.46 35.04 34.01 33.74 32.84 31.88
35.76 35.53 34.52 34.05 34.18 34.47 33.79 34.46 34.45 34.45 34.11 34.05 33.87 33.96 33.47 32.61 32.75 32.23 31.48 31.45 30.76 30.39
33.38 33.00 32.60 32.59 32.88 33.00 32.67 32.53 32.83 33.05 32.47 32.40 32.63 32.54 32.61 32.00 31.05 30.64 29.98 29.10 27.70 27.07
31.48 31.33 30.50 29.91 29.68 29.42 29.52 29.44 30.36 30.86 30.94 31.16 30.43 30.18 29.92 29.46 28.46 28.21 28.29 25.91 24.82 24.99
29.74 29.09 27.98 27.11 27.02 26.98 26.55 26.48 26.68 27.13 27.43 27.24 28.41 28.86 26.34 25.05 23.92 23.51 22.90 23.16 23.26 23.23
27.26 26.15 25.23 24.54 23.92 23.87 23.84 24.48 24.80 24.00 23.99 24.34 25.61 28.05 27.53 24.43 21.09 20.47 19.60 19.82 20.72 21.31
24.47 23.13 22.66 22.59 21.89 21.05 20.66 21.42 22.14 23.25 23.58 22.91 23.82 26.81 25.88 24.41 21.19 19.09 18.19 18.44 19.43 20.23
22.15 21.27 21.17 20.61 19.88 19.62 19.68 19.13 19.45 20.13 22.37 22.98 24.02 25.71 24.92 23.24 20.74 19.30 18.26 17.41 17.07 18.17
19.94 19.08 19.07 18.50 18.33 18.75 18.40 17.96 17.80 18.62 18.93 19.58 22.31 25.47 23.77 21.42 19.02 17.89 16.75 16.87 15.75 15.41
18.41 17.48 16.43 16.99 16.79 17.47 17.89 17.77 17.57 17.16 17.34 18.08 18.70 24.64 24.30 20.67 18.66 15.23 14.82 14.46 13.63 15.70
17.29 16.36 16.01 15.50 15.52 15.27 14.93 14.86 14.60 15.51 16.04 16.27 17.30 19.18 23.18 22.78 17.07 15.74 13.38 12.38 10.46 10.77
MSLP
1005.95 1006.21 1006.46 1006.69 1007.99 1008.59 1009.01 1010.09 1010.72 1011.19 1012.02 1012.38 1012.48 1012.90 1013.33 1013.79 1013.93 1014.09 1014.46 1014.88 1015.68 1016.38
1008.01 1007.91 1008.23 1009.14 1009.47 1010.77 1011.13 1011.76 1012.04 1012.45 1012.67 1013.20 1013.55 1013.77 1013.93 1014.15 1015.01 1015.57 1016.47 1016.53 1017.00 1016.60
1011.47 1010.46 1010.51 1010.87 1011.75 1011.86 1012.25 1012.88 1013.53 1014.14 1013.85 1014.62 1015.13 1015.18 1015.24 1015.74 1015.91 1016.03 1017.02 1017.83 1017.73 1018.24
1012.87 1012.43 1012.44 1012.74 1013.65 1013.62 1014.06 1014.96 1014.71 1015.75 1015.65 1016.28 1017.11 1016.92 1016.86 1017.19 1017.43 1017.80 1018.34 1019.17 1019.19 1019.14
1014.31 1014.79 1015.01 1015.15 1015.48 1015.95 1016.02 1016.34 1017.02 1017.28 1017.42 1017.60 1017.90 1018.37 1018.57 1018.82 1019.39 1019.85 1020.12 1020.57 1020.07 1020.15
1016.19 1016.56 1017.30 1017.01 1017.16 1017.90 1017.81 1017.81 1018.32 1019.01 1018.98 1019.12 1019.70 1019.92 1020.17 1020.51 1020.84 1021.25 1021.73 1021.66 1021.61 1022.04
1017.37 1018.51 1019.25 1019.86 1020.27 1019.86 1019.76 1019.86 1020.38 1020.22 1020.51 1020.80 1021.23 1021.57 1021.85 1022.08 1022.21 1022.47 1022.47 1022.70 1022.90 1022.73
1019.94 1021.33 1021.34 1021.44 1021.81 1021.93 1021.58 1021.94 1021.91 1021.88 1022.21 1022.34 1022.48 1022.99 1023.20 1023.40 1023.50 1023.53 1023.54 1023.65 1023.69 1023.64
1022.35 1022.79 1022.83 1023.08 1023.26 1023.65 1023.11 1023.16 1023.14 1023.26 1023.58 1023.56 1023.68 1024.16 1024.07 1024.15 1024.44 1024.77 1024.77 1024.89 1024.56 1024.34
1022.84 1023.13 1023.80 1024.06 1024.20 1024.52 1024.68 1024.98 1024.64 1024.64 1025.07 1025.42 1025.14 1025.38 1025.31 1025.62 1025.82 1025.75 1025.85 1025.95 1025.70 1025.29
1024.78 1024.82 1025.44 1025.83 1026.21 1026.26 1026.42 1026.45 1026.50 1027.08 1027.11 1026.84 1026.53 1026.60 1026.76 1026.83 1026.84 1026.69 1026.62 1026.92 1026.76 1026.44
1026.89 1027.19 1027.46 1027.70 1027.97 1027.90 1027.96 1028.26 1028.59 1028.91 1028.83 1028.18 1027.60 1027.66 1027.74 1027.73 1027.64 1027.42 1027.59 1027.91 1028.09 1027.85
1028.85 1028.66 1029.01 1029.46 1029.34 1029.37 1029.60 1029.81 1029.76 1029.83 1029.65 1029.57 1029.32 1028.74 1028.58 1028.68 1028.59 1028.59 1028.62 1028.90 1028.81 1028.54
1030.22 1030.30 1030.66 1030.70 1030.81 1030.90 1030.99 1030.94 1031.05 1031.03 1031.09 1030.98 1030.67 1030.15 1029.67 1029.52 1029.59 1029.52 1029.67 1029.51 1029.19 1028.95
Wind_Speed
12 5 6 7 6 4 2 2 4 4 9 10 9 7 6 5 5 5 4 7 5 5
16 13 13 16 15 9 10 8 12 12 11 10 10 10 10 9 10 11 9 9 8 8
15 17 16 16 17 15 14 14 13 13 14 13 12 10 11 9 10 12 8 6 9 7
18 18 18 18 17 17 18 15 17 15 15 14 11 12 12 12 12 13 11 9 9 11
18 18 18 18 19 18 18 18 16 16 17 16 16 15 15 15 14 13 13 11 13 13
20 20 20 20 20 18 19 20 20 17 18 18 16 15 15 15 14 14 13 13 15 13
22 20 19 18 18 19 19 19 18 19 19 18 17 16 15 14 14 13 14 14 14 13
19 18 18 18 18 17 19 17 18 18 18 17 16 12 13 13 13 13 13 12 11 12
17 17 17 17 17 17 18 18 18 19 18 17 13 26 25 17 12 13 13 11 11 11
17 18 17 17 18 17 18 16 18 18 18 18 16 26 25 22 11 12 12 13 12 12
16 17 17 17 16 16 15 17 16 16 16 16 18 27 24 21 11 11 13 13 14 14
15 15 15 16 15 14 14 14 15 14 15 16 17 28 25 17 12 13 13 13 13 14
15 16 16 14 14 13 12 12 11 13 14 17 15 26 27 19 9 11 9 10 12 18
15 16 14 13 12 12 12 12 12 12 11 12 13 16 25 25 11 9 7 8 8 9
Wind_Direction
198 196 184 181 176 165 134 37 47 73 55 42 45 38 31 19 35 63 78 89 71 67
18 37 50 60 54 50 63 57 64 57 66 57 59 66 76 82 68 55 37 57 66 83
25 51 56 58 61 60 60 54 57 59 61 53 46 58 73 70 66 83 83 68 71 63
55 52 57 59 55 57 62 56 56 53 61 62 55 51 61 61 60 56 57 44 50 55
61 59 61 61 64 56 62 61 60 58 57 56 55 52 57 60 55 56 55 50 49 45
66 61 57 55 56 58 60 61 57 57 56 56 54 55 56 59 60 59 58 53 50 44
63 62 63 62 59 58 58 60 58 57 55 56 55 53 56 58 61 60 58 57 50 41
69 67 68 64 61 60 60 59 59 60 59 57 54 53 54 55 53 52 54 50 47 43
76 74 67 65 63 61 60 58 61 57 55 53 57 55 56 55 52 48 46 39 36 35
65 67 63 61 58 55 55 52 52 54 53 52 51 50 51 50 50 50 44 37 28 28
61 62 59 58 57 56 54 51 50 46 45 51 48 46 44 43 43 46 42 35 26 15
59 64 62 59 56 56 58 56 53 48 44 42 44 43 41 36 31 33 32 26 20 5
57 59 58 55 54 53 55 59 56 53 43 37 32 36 36 36 30 24 17 16 12 4
56 59 57 57 51 51 52 51 43 44 41 35 26 25 30 30 21 25 5 3 358 355